Weather History for KHQM - November, 2013

Change the Weather History Date:

Sunday, November 17, 2013

  Actual Average Record
Temperature  
Mean Temperature 49 °F 45 °F  
Max Temperature 53 °F 51 °F 62 °F (1965)
Min Temperature 44 °F 40 °F 27 °F (1955)
Degree Days  
Heating Degree Days 16 20  
Month to date heating degree days 282 303  
Cooling Degree Days 0 0  
Month to date cooling degree days 0 0  
Year to date cooling degree days 20 23  
Moisture  
Dew Point 47 °F    
Average Humidity 93    
Maximum Humidity 100    
Minimum Humidity 86    
Precipitation  
Precipitation 0.13 in 0.39 in 2.54 in (1954)
Month to date precipitation 3.96 6.22  
Year to date precipitation 48.09 52.64  
Sea Level Pressure  
Sea Level Pressure 29.86 in    
Wind  
Wind Speed 9 mph (South)    
Max Wind Speed 20 mph    
Max Gust Speed 22 mph    
Visibility 6 miles    
Events Rain    
T = Trace of Precipitation, MM = Missing Value Source: NWS Daily Summary

Daily Weather History Graph

Daily Weather History Graph

Search for Another Location

Airport or City:

Trip Planner

Search our weather history database for the weather conditions in past years. The results will help you decide how hot, cold, wet, or windy it might be!

Date:

Astronomy

Nov. 17, 2013 Rise Set
Actual Time 7:22 AM PST 4:38 PM PST
Civil Twilight 6:49 AM PST 5:12 PM PST
Nautical Twilight 6:11 AM PST 5:49 PM PST
Astronomical Twilight 5:35 AM PST 6:25 PM PST
Moon 4:59 PM PST (11/17) 7:21 AM PST (11/17)
Length of Visible Light 10h 23m
Length of Day
9h 16m
Full, 100% of the Moon is Illuminated
Nov 17
Full
Nov 25
Last Quarter
Dec 2
New
Dec 9
First Quarter
Dec 17
Full

Hourly Weather History & Observations

Time (PST) Temp. Windchill Dew Point Humidity Pressure Visibility Wind Dir Wind Speed Gust Speed Precip Events Conditions
12:29 AM 46.4 °F 42.4 °F 44.6 °F 93% 29.80 in 7.0 mi South 8.1 mph - N/A   Overcast
12:53 AM 46.9 °F - 44.1 °F 90% 29.82 in 7.0 mi SSE 8.1 mph - N/A   Overcast
1:53 AM 46.9 °F - 44.1 °F 90% 29.82 in 8.0 mi SSE 8.1 mph - 0.01 in   Overcast
2:30 AM 46.4 °F 42.9 °F 44.6 °F 93% 29.81 in 7.0 mi SSE 6.9 mph - N/A   Overcast
2:53 AM 46.9 °F - 45.0 °F 93% 29.83 in 7.0 mi South 6.9 mph - N/A   Mostly Cloudy
3:18 AM 46.4 °F 44.3 °F 44.6 °F 93% 29.82 in 7.0 mi South 4.6 mph - N/A   Overcast
3:53 AM 46.9 °F - 45.0 °F 93% 29.83 in 7.0 mi Variable 3.5 mph - N/A   Overcast
4:37 AM 48.2 °F - 44.6 °F 87% 29.82 in 7.0 mi South 8.1 mph - 0.00 in   Overcast
4:53 AM 48.0 °F - 45.0 °F 89% 29.83 in 8.0 mi SSE 5.8 mph - 0.00 in   Overcast
5:53 AM 48.0 °F - 45.0 °F 89% 29.83 in 7.0 mi South 6.9 mph - 0.00 in Rain Light Rain
6:08 AM 48.2 °F - 44.6 °F 87% 29.81 in 8.0 mi SSE 6.9 mph - 0.01 in   Overcast
6:53 AM 48.0 °F - 46.0 °F 93% 29.83 in 4.0 mi South 6.9 mph - 0.03 in Rain Light Rain
7:41 AM 48.2 °F - 46.4 °F 93% 29.82 in 8.0 mi South 9.2 mph - 0.00 in   Overcast
7:53 AM 48.9 °F - 46.9 °F 93% 29.84 in 3.0 mi SSW 15.0 mph - 0.02 in Rain Light Rain
8:05 AM 50.0 °F - 48.2 °F 94% 29.83 in 3.0 mi South 13.8 mph - 0.01 in Rain Light Rain
8:16 AM 50.0 °F - 48.2 °F 94% 29.83 in 4.0 mi SSW 15.0 mph - 0.01 in Rain Light Rain
8:28 AM 48.2 °F - 46.4 °F 93% 29.83 in 3.0 mi South 15.0 mph - 0.02 in Rain Light Rain
8:53 AM 48.9 °F - 46.9 °F 93% 29.85 in 2.0 mi South 10.4 mph - 0.04 in Rain Light Rain
9:02 AM 48.2 °F - 46.4 °F 93% 29.84 in 7.0 mi South 10.4 mph - 0.00 in Rain Light Rain
9:14 AM 48.2 °F - 46.4 °F 93% 29.84 in 8.0 mi SSW 10.4 mph - 0.00 in   Overcast
9:31 AM 50.0 °F - 48.2 °F 94% 29.84 in 7.0 mi SSW 13.8 mph - 0.00 in   Overcast
9:46 AM 51.8 °F - 48.2 °F 88% 29.85 in 2.5 mi SW 16.1 mph - 0.00 in Rain Light Rain
9:53 AM 51.1 °F - 48.9 °F 92% 29.86 in 2.0 mi SSW 12.7 mph - 0.00 in Rain Light Rain
10:01 AM 50.0 °F - 48.2 °F 94% 29.86 in 5.0 mi SSW 15.0 mph - 0.00 in Rain Light Rain
10:53 AM 50.0 °F - 48.9 °F 96% 29.88 in 6.0 mi SSW 16.1 mph - 0.00 in   Overcast
11:24 AM 51.8 °F - 48.2 °F 88% 29.87 in 6.0 mi SSW 13.8 mph - N/A   Scattered Clouds
11:53 AM 51.1 °F - 48.0 °F 89% 29.88 in 7.0 mi SW 11.5 mph - N/A   Overcast
12:53 PM 52.0 °F - 48.0 °F 86% 29.89 in 7.0 mi SW 11.5 mph - N/A   Overcast
1:40 PM 50.0 °F - 46.4 °F 87% 29.88 in 2.5 mi SSW 10.4 mph - 0.01 in Rain Light Rain
1:53 PM 50.0 °F - 46.9 °F 89% 29.89 in 1.8 mi SSW 13.8 mph - 0.01 in Rain Light Rain
2:05 PM 48.2 °F - 46.4 °F 93% 29.88 in 3.0 mi SSW 11.5 mph - 0.01 in Rain Light Rain
2:32 PM 50.0 °F - 48.2 °F 94% 29.87 in 2.5 mi South 9.2 mph - 0.01 in Rain Light Rain
2:35 PM 50.0 °F - 48.2 °F 94% 29.88 in 3.0 mi South 9.2 mph - 0.01 in   Overcast
2:53 PM 48.9 °F - 48.0 °F 97% 29.89 in 2.0 mi SSW 11.5 mph - 0.01 in Rain Light Rain
3:04 PM 50.0 °F - 48.2 °F 94% 29.88 in 5.0 mi SSW 8.1 mph - 0.00 in   Overcast
3:53 PM 50.0 °F - 48.0 °F 93% 29.89 in 6.0 mi South 11.5 mph - 0.00 in   Overcast
4:31 PM 50.0 °F - 48.2 °F 94% 29.89 in 2.5 mi SSW 8.1 mph - 0.01 in Rain Light Rain
4:53 PM 50.0 °F - 48.0 °F 93% 29.90 in 9.0 mi SSW 10.4 mph - 0.01 in   Overcast
5:53 PM 50.0 °F - 46.9 °F 89% 29.91 in 9.0 mi SSW 9.2 mph - N/A   Overcast
6:53 PM 48.9 °F - 48.0 °F 97% 29.91 in 8.0 mi South 8.1 mph - N/A   Overcast
7:43 PM 48.2 °F - 46.4 °F 93% 29.90 in 8.0 mi SSW 10.4 mph - N/A   Overcast
7:53 PM 48.9 °F - 46.9 °F 93% 29.91 in 7.0 mi South 9.2 mph - N/A   Overcast
8:53 PM 48.9 °F - 48.0 °F 97% 29.92 in 8.0 mi South 4.6 mph - N/A   Overcast
9:53 PM 48.9 °F - 46.9 °F 93% 29.92 in 9.0 mi South 5.8 mph - N/A   Overcast
10:53 PM 48.9 °F - 46.9 °F 93% 29.92 in 9.0 mi South 8.1 mph - N/A   Overcast
11:51 PM 48.2 °F - 46.4 °F 93% 29.92 in 9.0 mi SSW 3.5 mph - N/A   Overcast
11:53 PM 48.9 °F - 46.9 °F 93% 29.93 in 9.0 mi SSW 3.5 mph - N/A   Overcast